Fairbanks, AK

6:48 AM AKDT on March 27, 2017 (GMT -0800)
Fairbanks International

Weather History for PAFA - May, 2013

Change the Weather History Date:

Thursday, May 30, 2013

  Actual Average Record
Temperature  
Mean Temperature 68 °F 55 °F  
Max Temperature 84 °F 67 °F 84 °F (1983)
Min Temperature 52 °F 43 °F 28 °F (1931)
Degree Days  
Heating Degree Days 0 10  
Month to date heating degree days 646 476  
Since 1 July heating degree days 14805 13500  
Cooling Degree Days 3 0  
Month to date cooling degree days 10 0  
Year to date cooling degree days 10 0  
Growing Degree Days 18 (Base 50)    
Moisture  
Dew Point 35 °F    
Average Humidity 29    
Maximum Humidity 51    
Minimum Humidity 7    
Precipitation  
Precipitation 0.00 in 0.03 in 0.55 in (1977)
Month to date precipitation 0.15 0.58  
Year to date precipitation 2.34 2.14  
Snow  
Snow 0.00 in 0.00 in T in (2003)
Month to date snowfall 2.0 0.9  
Since 1 July snowfall 68.6 65.0  
Snow Depth 0.00 in    
Sea Level Pressure  
Sea Level Pressure 29.78 in    
Wind  
Wind Speed 4 mph (East)    
Max Wind Speed 10 mph    
Max Gust Speed -    
Visibility 10 miles    
Events      
T = Trace of Precipitation, MM = Missing Value Source: NWS Daily Summary

Daily Weather History Graph

Daily Weather History Graph

Search for Another Location

Airport or City:

Trip Planner

Search our weather history database for the weather conditions in past years. The results will help you decide how hot, cold, wet, or windy it might be!

Date:

Astronomy

May. 30, 2013 Rise Set
Actual Time 3:38 AM AKDT 12:02 AM AKDT
Civil Twilight Sun does not rise Sun does not rise
Nautical Twilight Sun does not rise Sun does not rise
Astronomical Twilight Sun does not rise Sun does not rise
Moon 2:11 AM AKDT (5/30) 12:02 PM AKDT (5/30)
Length of Visible Light 24h 00m
Length of Day
20h 24m
Waning Gibbous, 61% of the Moon is Illuminated
May 30
Waning Gibbous
May 31
Last Quarter
Jun 8
New
Jun 16
First Quarter
Jun 23
Full

Hourly Weather History & Observations

Time (AKDT) Temp. Dew Point Humidity Pressure Visibility Wind Dir Wind Speed Gust Speed Precip Events Conditions
12:53 AM 66.9 °F 34.0 °F 30% 29.70 in 10.0 mi North 6.9 mph - N/A   Partly Cloudy
1:53 AM 62.1 °F 35.1 °F 37% 29.70 in 10.0 mi Calm Calm - N/A   Partly Cloudy
2:53 AM 61.0 °F 34.0 °F 36% 29.71 in 10.0 mi NE 5.8 mph - N/A   Partly Cloudy
3:53 AM 57.0 °F 36.0 °F 45% 29.73 in 10.0 mi Calm Calm - N/A   Partly Cloudy
4:53 AM 54.0 °F 36.0 °F 51% 29.75 in 10.0 mi NE 9.2 mph - N/A   Partly Cloudy
5:53 AM 55.9 °F 37.9 °F 51% 29.77 in 10.0 mi NE 5.8 mph - N/A   Partly Cloudy
6:53 AM 60.1 °F 37.9 °F 44% 29.78 in 10.0 mi NE 5.8 mph - N/A   Partly Cloudy
7:53 AM 61.0 °F 39.0 °F 44% 29.78 in 10.0 mi East 3.5 mph - N/A   Partly Cloudy
8:53 AM 64.0 °F 39.0 °F 40% 29.79 in 10.0 mi ESE 4.6 mph - N/A   Partly Cloudy
9:53 AM 66.9 °F 37.9 °F 34% 29.80 in 10.0 mi ESE 5.8 mph - N/A   Partly Cloudy
10:53 AM 70.0 °F 37.9 °F 31% 29.80 in 10.0 mi East 5.8 mph - N/A   Partly Cloudy
11:53 AM 73.9 °F 37.9 °F 27% 29.81 in 10.0 mi Calm Calm - N/A   Partly Cloudy
12:53 PM 77.0 °F 39.0 °F 25% 29.80 in 10.0 mi Calm Calm - N/A   Partly Cloudy
1:53 PM 79.0 °F 35.1 °F 20% 29.79 in 10.0 mi Calm Calm - N/A   Partly Cloudy
2:53 PM 82.0 °F 30.0 °F 15% 29.79 in 10.0 mi Variable 4.6 mph - N/A   Partly Cloudy
3:53 PM 81.0 °F 28.0 °F 14% 29.78 in 10.0 mi South 4.6 mph - N/A   Partly Cloudy
4:53 PM 82.0 °F 26.1 °F 13% 29.78 in 10.0 mi South 5.8 mph - N/A   Partly Cloudy
5:53 PM 82.0 °F 25.0 °F 12% 29.77 in 10.0 mi SSE 4.6 mph - N/A   Partly Cloudy
6:53 PM 82.9 °F 26.1 °F 13% 29.77 in 10.0 mi SE 5.8 mph - N/A   Scattered Clouds
7:53 PM 81.0 °F 37.0 °F 21% 29.78 in 10.0 mi WNW 10.4 mph - N/A   Scattered Clouds
8:53 PM 81.0 °F 36.0 °F 20% 29.80 in 10.0 mi WNW 9.2 mph - N/A   Scattered Clouds
9:53 PM 75.0 °F 37.0 °F 25% 29.81 in 10.0 mi North 4.6 mph - N/A   Mostly Cloudy
10:53 PM 70.0 °F 41.0 °F 35% 29.82 in 10.0 mi NE 5.8 mph - N/A   Mostly Cloudy
11:53 PM 66.0 °F 43.0 °F 43% 29.84 in 10.0 mi WSW 4.6 mph - N/A   Mostly Cloudy